Flag for U.S.A. Weather past 2 weeks in Springfield, Massachusetts, U.S.A.

Now
77 °F

Overcast.


Feels Like: 79 °F
Forecast: 55 / 82 °F
Wind: 5 mph from South

Location: Barnes Municipal Airport

Current Time: Jun 30, 2015 at 6:15:40 PM

Latest Report: Jun 30, 2015 at 4:53 PM


Visibility: 10 mi

Pressure: 29.91 "Hg

Humidity: 58%

Dew point: 61 °F

Location of SpringfieldLocation

Historic Weather in Springfield — Graph

°F

Springfield temperature yesterday

Maximum temperature yesterday: 76 °F (at 3:53 PM)
Minimum temperature yesterday: 53 °F (at 6:00 AM)
Average temperature yesterday: 63 °F

Past Weeks' High & Low Weather Summary

 TemperatureHumidityPressure
High89 °F (Jun 23, 2:53 PM)97% (Jun 21, 6:55 AM)30.17 "Hg (Jun 21, 6:55 AM)
Low53 °F (Jun 20, 3:53 AM)36% (Jun 17, 1:53 PM)29.65 "Hg (Jun 21, 4:53 PM)
Average67 °F72%29.94 "Hg
* Reported Jun 15 4:53 PM — Jun 30 4:53 PM, Springfield, Weather by CustomWeather, © 2015

Note: Actual official high and low records may vary slightly from our data, if they occured in-between our weather recording intervals... More about our weather records

Advertising

Springfield weather history for previous 24 hours

 ConditionsComfort  
Time TempWeatherWind HumidityBarometerVisibility
4:53 PM
Tue, Jun 30
77 °FOvercast.5 mph58%29.91 "Hg10 mi
3:53 PM77 °FMostly cloudy.7 mph62%29.93 "Hg10 mi
2:53 PM78 °FMore clouds than sun.No wind62%29.94 "Hg10 mi
1:53 PM77 °FPartly sunny.No wind60%29.96 "Hg10 mi
12:53 PM77 °FSunny.8 mph58%29.96 "Hg10 mi
11:53 AM75 °FSunny.7 mph60%29.98 "Hg10 mi
10:53 AM73 °FSunny.3 mph62%29.99 "Hg10 mi
9:53 AM71 °FSunny.No wind63%29.99 "Hg10 mi
8:53 AM67 °FSunny.No wind73%30.01 "Hg10 mi
7:53 AM62 °FOvercast.No wind90%30.00 "Hg10 mi
6:53 AM60 °FPartly sunny.No wind90%29.98 "Hg10 mi
5:53 AM58 °FOvercast.3 mph90%29.98 "Hg10 mi
4:53 AM57 °FOvercast.No wind93%29.96 "Hg10 mi
3:53 AM55 °FPassing clouds.No wind96%29.97 "Hg10 mi
2:53 AM56 °FClear.No wind93%29.96 "Hg10 mi
1:53 AM55 °FFog.3 mph96%29.96 "Hg5 mi
12:53 AM57 °FPassing clouds.No wind93%29.96 "Hg10 mi
11:53 PM
Mon, Jun 29
57 °FFog.No wind96%29.95 "Hg2 mi
10:53 PM59 °FFog.No wind93%29.94 "Hg4 mi
9:53 PM61 °FClear.No wind93%29.93 "Hg10 mi
8:53 PM64 °FPassing clouds.No wind90%29.90 "Hg10 mi
7:53 PM69 °FOvercast.3 mph73%29.90 "Hg10 mi
6:53 PM72 °FOvercast.7 mph61%29.88 "Hg10 mi
Weather by CustomWeather, © 2015

See weather overviewHow to use our weather pages